WB0RXX Weather Reports


Display with metric or nautical units.
time (UTC)temp
F
wind
direction
speed
MPH
gust
MPH
rain 1hr
in
rain 24hr
in
rain mn
in
humidity
%
barometer
mb
20260906085004 72 152 3.0 8.0 0.00 0.00 0.00 95 1016.1
20260906080004 72 141 4.0 8.0 0.00 0.00 0.00 94 1016.1
20260906071004 73 119 1.0 4.0 0.00 0.00 0.00 94 1016.1
20260906063004 73 137 2.0 3.0 0.00 0.00 0.00 94 1016.3
20260906061003 73 121 2.0 4.0 0.00 0.00 0.00 93 1016.4
20260906060004 73 144 3.0 6.0 0.00 0.00 0.00 94 1016.3
20260906054003 74 134 3.0 7.0 0.00 0.00 0.00 94 1016.4
20260906045004 75 93 0.0 2.0 0.00 0.00 0.00 94 1016.2
20260906042004 75 90 0.0 0.0 0.00 0.00 0.00 94 1016.4
20260906041005 76 55 0.0 1.0 0.00 0.00 0.00 94 1016.3
20260906040003 76 87 0.0 0.0 0.00 0.00 0.00 94 1016.3
20260906033003 75 130 1.0 4.0 0.00 0.00 0.00 94 1015.9
20260906031004 75 123 2.0 4.0 0.00 0.00 0.00 93 1015.6
20260906024004 76 124 1.0 6.0 0.00 0.00 0.00 92 1015.6
20260906021002 77 103 0.0 0.0 0.00 0.00 0.00 91 1015.5
20260906015004 77 139 1.0 4.0 0.00 0.00 0.00 90 1015.4
20260906012003 78 142 0.0 0.0 0.00 0.00 0.00 88 1015.3
20260906011004 79 140 1.0 3.0 0.00 0.00 0.00 88 1015.4
20260906004004 80 171 6.0 7.0 0.00 0.00 0.00 86 1014.9
20260905234003 82 146 6.0 11.0 0.00 0.00 0.00 82 1014.7
20260905231003 83 148 8.0 13.0 0.00 0.00 0.00 80 1014.6
20260905225005 83 140 8.0 13.0 0.00 0.00 0.00 79 1014.5
20260905223004 83 132 5.0 9.0 0.00 0.00 0.00 78 1014.3
20260905222006 83 156 10.0 15.0 0.00 0.00 0.00 76 1014.3
20260905221003 84 142 9.0 13.0 0.00 0.00 0.00 76 1014.4
20260905220003 84 126 8.0 12.0 0.00 0.00 0.00 74 1014.3
20260905214005 84 151 7.0 15.0 0.00 0.00 0.00 71 1014.3
20260905212005 84 135 7.0 13.0 0.00 0.00 0.00 70 1014.4
20260905210006 84 116 5.0 11.0 0.00 0.00 0.00 69 1014.5
20260905204004 84 100 7.0 12.0 0.00 0.00 0.00 69 1014.5
20260905202005 84 92 6.0 9.0 0.00 0.00 0.00 70 1014.5
20260905194004 84 131 4.0 7.0 0.00 0.00 0.00 69 1014.7
20260905192005 82 76 3.0 9.0 0.00 0.00 0.00 72 1014.7
20260905190006 81 104 4.0 8.0 0.00 0.00 0.00 74 1015.0
20260905185003 80 106 3.0 9.0 0.00 0.00 0.00 76 1015.0
20260905173005 76 128 5.0 10.0 0.00 0.00 0.00 83 1015.6
20260905170006 74 103 9.0 12.0 0.00 0.00 0.00 86 1016.2
20260905165004 73 80 4.0 9.0 0.00 0.00 0.00 87 1016.4
20260905153003 69 103 2.0 6.0 0.00 0.00 0.00 96 1016.9
20260905151004 68 127 4.0 7.0 0.00 0.00 0.00 96 1016.7
20260905150005 68 127 3.0 7.0 0.00 0.00 0.00 97 1016.5
20260905143002 67 119 5.0 10.0 0.00 0.00 0.00 97 1016.1
20260905142004 66 103 3.0 4.0 0.00 0.00 0.00 97 1015.8
20260905135002 66 90 3.0 8.0 0.00 0.00 0.00 97 1016.3
20260905132003 66 116 2.0 5.0 0.00 0.00 0.00 96 1016.2
20260905124004 65 94 0.0 0.0 0.00 0.00 0.00 96 1017.1
20260905120004 65 94 0.0 0.0 0.00 0.00 0.00 95 1015.8
20260905113004 65 42 0.0 3.0 0.00 0.00 0.00 96 1015.6
20260905112004 65 97 0.0 0.0 0.00 0.00 0.00 96 1015.6
20260905105004 66 141 0.0 0.0 0.00 0.00 0.00 96 1015.6
20260905104005 66 141 0.0 3.0 0.00 0.00 0.00 96 1015.5
20260905095003 65 153 0.0 0.0 0.00 0.00 0.00 96 1015.0
20260905090004 65 142 0.0 1.0 0.00 0.00 0.00 96 1014.7